Weather History for KHKS - August, 2013

Change the Weather History Date:

Friday, August 2, 2013

  Actual Average (KJAN) Record (KJAN)
Temperature  
Mean Temperature 85 °F 82 °F  
Max Temperature 96 °F 92 °F 105 °F (2010)
Min Temperature 75 °F 72 °F 59 °F (1965)
Degree Days  
Heating Degree Days 0 0  
Month to date heating degree days 0  
Since 1 June heating degree days 0  
Since 1 July heating degree days 0  
Cooling Degree Days 20 17  
Month to date cooling degree days 34  
Year to date cooling degree days 1329  
Since 1 June cooling degree days 971  
Growing Degree Days 35 (Base 50)    
Moisture  
Dew Point 72 °F    
Average Humidity 68    
Maximum Humidity 91    
Minimum Humidity 44    
Precipitation  
Precipitation 0.00 in 0.16 in 2.60 in (1908)
Month to date precipitation 0.32  
Year to date precipitation 33.36  
Sea Level Pressure  
Sea Level Pressure 29.96 in    
Wind  
Wind Speed 2 mph (North)    
Max Wind Speed 9 mph    
Max Gust Speed -    
Visibility 10 miles    
Events      
T = Trace of Precipitation, MM = Missing Value Source: NWS Daily Summary

Daily Weather History Graph

Daily Weather History Graph

Search for Another Location

Airport or City:

Trip Planner

Search our weather history database for the weather conditions in past years. The results will help you decide how hot, cold, wet, or windy it might be!

Date:

Astronomy

Aug. 02, 2013 Rise Set
Actual Time 6:16 AM CDT 7:57 PM CDT
Civil Twilight 5:49 AM CDT 8:23 PM CDT
Nautical Twilight 5:17 AM CDT 8:55 PM CDT
Astronomical Twilight 4:43 AM CDT 9:29 PM CDT
Moon 2:39 AM CDT (8/2) 4:52 PM CDT (8/2)
Length of Visible Light 14h 34m
Length of Day
13h 40m
Waning Crescent, 15% of the Moon is Illuminated
Aug 2
Waning Crescent
Aug 6
New
Aug 14
First Quarter
Aug 20
Full
Aug 28
Last Quarter

Hourly Weather History & Observations

Time (CDT) Temp. Heat Index Dew Point Humidity Pressure Visibility Wind Dir Wind Speed Gust Speed Precip Events Conditions
12:53 AM 80.1 °F 83.8 °F 72.0 °F 76% 29.94 in 10.0 mi Calm Calm - N/A   Clear
1:53 AM 78.1 °F - 72.0 °F 81% 29.94 in 10.0 mi Calm Calm - N/A   Clear
2:53 AM 77.0 °F - 73.0 °F 88% 29.94 in 9.0 mi ENE 3.5 mph - N/A   Clear
3:53 AM 75.9 °F - 72.0 °F 87% 29.95 in 9.0 mi Calm Calm - N/A   Clear
4:53 AM 75.9 °F - 72.0 °F 87% 29.95 in 9.0 mi NE 3.5 mph - N/A   Partly Cloudy
5:53 AM 75.9 °F - 72.0 °F 87% 29.96 in 7.0 mi Calm Calm - N/A   Clear
6:53 AM 75.9 °F - 73.0 °F 91% 29.98 in 5.0 mi Calm Calm - N/A   Clear
7:53 AM 80.1 °F 84.5 °F 73.9 °F 81% 29.98 in 9.0 mi East 3.5 mph - N/A   Partly Cloudy
8:53 AM 82.9 °F 89.4 °F 73.9 °F 74% 29.98 in 10.0 mi Calm Calm - N/A   Partly Cloudy
9:53 AM 87.1 °F 94.5 °F 73.0 °F 63% 29.99 in 10.0 mi Variable 4.6 mph - N/A   Clear
10:53 AM 88.0 °F 94.7 °F 72.0 °F 59% 29.99 in 10.0 mi SE 9.2 mph - N/A   Clear
11:53 AM 91.0 °F 98.2 °F 72.0 °F 53% 29.99 in 10.0 mi Calm Calm - N/A   Partly Cloudy
12:53 PM 91.9 °F 99.5 °F 72.0 °F 52% 29.99 in 10.0 mi West 4.6 mph - N/A   Scattered Clouds
1:53 PM 91.9 °F 98.4 °F 71.1 °F 50% 29.98 in 10.0 mi Calm Calm - N/A   Scattered Clouds
2:53 PM 93.9 °F 102.1 °F 72.0 °F 49% 29.96 in 10.0 mi West 6.9 mph - N/A   Mostly Cloudy
3:53 PM 93.9 °F 102.1 °F 72.0 °F 49% 29.94 in 10.0 mi Variable 4.6 mph - N/A   Clear
4:53 PM 95.0 °F 102.5 °F 71.1 °F 46% 29.94 in 10.0 mi Variable 4.6 mph - N/A   Scattered Clouds
5:53 PM 93.9 °F 99.1 °F 69.1 °F 44% 29.94 in 10.0 mi NW 5.8 mph - N/A   Clear
6:53 PM 91.0 °F 97.6 °F 71.1 °F 52% 29.94 in 10.0 mi NW 4.6 mph - N/A   Clear
7:53 PM 89.1 °F 97.0 °F 73.0 °F 59% 29.95 in 10.0 mi Calm Calm - N/A   Clear
8:53 PM 84.9 °F 92.1 °F 73.9 °F 69% 29.96 in 10.0 mi Calm Calm - N/A   Clear
9:53 PM 84.0 °F 91.2 °F 73.9 °F 72% 29.98 in 10.0 mi Calm Calm - N/A   Clear
10:53 PM 82.9 °F 89.4 °F 73.9 °F 74% 29.98 in 10.0 mi Calm Calm - N/A   Clear
11:53 PM 81.0 °F 86.2 °F 73.9 °F 79% 29.98 in 10.0 mi South 5.8 mph - N/A   Clear